• Join FlightAware (Why Join?)
  • Login
  • US Flag 
10:39AM EST


 

Airport Tracker/Info


-or-


 

Live Flight TrackerFlight Track Log ✈ PAG2 ✈ 18-Aug-2013 ✈ CJR3 - CYWG

Flight Track Log - Related Links

Times and Time Zones

All times are in EDT time to prevent confusion due to time zone crossing. See the PAG2 flight status page for this flight to view local times or setup timezone preferences in your user account.

Time Position Orientation Groundspeed Altitude Reporting Facility
EDT Latitude Longitude Course Direction KTS MPH feet Rate Location/Type
03:30AM 53.2606 -100.5780 145° Southeast  Level Estimated
03:31AM 53.2049 -100.5135 145° Southeast  Level FlightAware Approximate
03:32AM 53.1481 -100.4519 156° South  Level Estimated
03:33AM 53.0913 -100.3904 147° Southeast  Level Estimated
03:34AM 53.0339 -100.3305 148° Southeast  Level FlightAware Approximate
03:35AM 52.9765 -100.2707 148° Southeast  Level FlightAware Approximate
03:35AM 53.1167 -100.4500 148° Southeast 260 299 17,000  Level Winnipeg Center
03:36AM 52.9191 -100.2110 148° Southeast  Level FlightAware Approximate
03:36AM 53.0500 -100.3667 143° Southeast 270 311 17,100  Level Winnipeg Center
03:37AM 52.8616 -100.1515 148° Southeast  Level FlightAware Approximate
03:37AM 53.0000 -100.3000 141° Southeast 280 322 16,800  Level Winnipeg Center
03:38AM 52.8041 -100.0922 148° Southeast  Level FlightAware Approximate
03:38AM 52.9333 -100.2167 143° Southeast 280 322 16,900  Level Winnipeg Center
03:39AM 52.7466 -100.0330 148° Southeast  Level FlightAware Approximate
03:39AM 52.8500 -100.1833 166° South 280 322 17,000  Level Winnipeg Center
03:40AM 52.6890 -99.9740 148° Southeast  Level FlightAware Approximate
03:40AM 52.7833 -100.1000 143° Southeast 280 322 17,000  Level Winnipeg Center
03:41AM 52.7167 -100.0000 138° Southeast 280 322 17,000  Level Winnipeg Center
03:42AM 52.6500 -99.9500 156° South 280 322 17,000  Level Winnipeg Center
03:43AM 52.5833 -99.8500 138° Southeast 280 322 17,000  Level Winnipeg Center
03:44AM 52.5167 -99.8000 155° Southeast 280 322 17,000  Level Winnipeg Center
03:45AM 52.4500 -99.7333 149° Southeast 280 322 17,000  Level Winnipeg Center
03:46AM 52.4000 -99.6833 149° Southeast 280 322 17,000  Level Winnipeg Center
03:47AM 52.3333 -99.6000 143° Southeast 280 322 17,100  Climbing Winnipeg Center
03:48AM 52.2667 -99.5333 149° Southeast 280 322 17,000 -60 Descending Winnipeg Center
03:49AM 52.2000 -99.4500 143° Southeast 280 322 17,000  Level Winnipeg Center
03:50AM 52.1333 -99.4000 155° Southeast 280 322 17,000  Level Winnipeg Center
03:51AM 52.0667 -99.3333 148° Southeast 270 311 17,000  Level Winnipeg Center
03:52AM 52.0000 -99.2833 155° Southeast 270 311 17,000  Level Winnipeg Center
03:53AM 51.9333 -99.2167 148° Southeast 270 311 17,000  Level Winnipeg Center
03:54AM 51.8667 -99.1333 142° Southeast 270 311 17,000  Level Winnipeg Center
03:55AM 51.8167 -99.0833 148° Southeast 270 311 17,000  Level Winnipeg Center
03:56AM 51.7333 -99.0167 154° Southeast 270 311 17,000  Level Winnipeg Center
03:57AM 51.6833 -98.9667 148° Southeast 270 311 17,000  Level Winnipeg Center
03:58AM 51.6167 -98.9000 148° Southeast 270 311 17,000  Level Winnipeg Center
03:59AM 51.5500 -98.8167 142° Southeast 270 311 17,000  Level Winnipeg Center
04:00AM 51.4833 -98.7667 155° Southeast 270 311 17,000  Level Winnipeg Center
04:01AM 51.4167 -98.7167 155° Southeast 270 311 17,000  Level Winnipeg Center
04:02AM 51.3667 -98.6333 134° Southeast 260 299 17,000 -60 Level Winnipeg Center
04:03AM 51.3000 -98.5667 148° Southeast 260 299 16,900 -60 Descending Winnipeg Center
04:04AM 51.2333 -98.5167 155° Southeast 260 299 16,900 -60 Level Winnipeg Center
04:05AM 51.1667 -98.4667 149° Southeast 260 299 16,800  Descending Winnipeg Center
04:06AM 51.1521 -98.4310 146° Southeast  Level FlightAware Approximate
04:06AM 51.1333 -98.4000 129° Southeast 260 299 17,000  Level Winnipeg Center
04:07AM 51.0667 -98.3167 142° Southeast 260 299 17,000  Level Winnipeg Center
04:08AM 51.0000 -98.2667 155° Southeast 260 299 17,000  Level Winnipeg Center
04:09AM 50.9333 -98.2167 155° Southeast 260 299 17,000  Level Winnipeg Center
04:10AM 50.8833 -98.1667 147° Southeast 260 299 17,000 -60 Level Winnipeg Center
04:11AM 50.8560 -98.1226 148° Southeast  Level FlightAware Approximate
04:12AM 50.7500 -98.0500 151° Southeast 260 299 16,900  Level Winnipeg Center
04:13AM 50.7529 -98.0216 149° Southeast  Level FlightAware Approximate
04:13AM 50.7000 -98.0000 148° Southeast 250 288 17,000  Level Winnipeg Center
04:14AM 50.6333 -97.9167 142° Southeast 260 299 17,000  Level Winnipeg Center
04:15AM 50.5667 -97.8667 155° Southeast 250 288 17,000 -240 Level Winnipeg Center
04:16AM 50.5000 -97.8000 148° Southeast 260 299 16,600 -1,200 Descending Winnipeg Center
04:17AM 50.4333 -97.7500 154° Southeast 290 334 14,700 -1,980 Descending Winnipeg Center
04:18AM 50.4499 -97.7332 147° Southeast  Level FlightAware Approximate
04:18AM 50.3667 -97.6667 141° Southeast 310 357 12,700  Level Winnipeg Center
04:19AM 50.2833 -97.6167 159° South 300 345 11,000 -1,980 Descending Winnipeg Center
04:20AM 50.2167 -97.5333 141° Southeast 280 322 8,800 -2,640 Descending Winnipeg Center
04:21AM 50.1500 -97.4833 154° Southeast 270 311 5,800 -2,340 Descending Winnipeg Center
04:22AM 50.1000 -97.4333 147° Southeast 240 276 4,200 -1,500 Descending Winnipeg Center
04:23AM 50.0333 -97.4167 171° South 210 242 2,800 -1,080 Descending Winnipeg Center
04:24AM 50.0000 -97.3500 128° Southeast 190 219 2,100 -480 Descending Winnipeg Center
04:25AM 49.9667 -97.3333 162° South 160 184 1,900 -300 Descending Winnipeg Center
04:26AM 49.9333 -97.2833 136° Southeast 120 138 1,500 -480 Descending Winnipeg Center
04:27AM 49.9000 -97.2500 147° Southeast 110 127 1,000 -360 Descending Winnipeg Center
04:28AM 49.8833 -97.2333 147° Southeast 60 69 800 -120 Descending Winnipeg Center
04:29AM 49.8833 -97.2333 147° Southeast 30 35 800  Level Winnipeg Center